• In Netherlands
  • List of Countries
  • For 7 days
  • Water Temperature
  • Satellite Maps
  • Weather Map
  • Weather Widgets
  • user-avatar
    Login

    Hourly Weather Chernomorec

    Today, 20 October, Friday

    Time Temperature Precipitation Wind Pressure Humidity
    00:00 +18°C° 0 mm 1 mps 762 mmHg 67%
    01:00 +18°C° 0 mm 1 mps 762 mmHg 67%
    02:00 +16°C° 0 mm 1 mps 762 mmHg 67%
    03:00 +16°C° 0 mm 1 mps 762 mmHg 66%
    04:00 +16°C° 0 mm 1 mps 762 mmHg 65%
    05:00 +16°C° 0 mm 1 mps 762 mmHg 64%
    06:00 +18°C° 0 mm 1 mps 762 mmHg 62%
    07:00 +18°C° 0 mm 1 mps 762 mmHg 59%
    08:00 +19°C° 0 mm 1 mps 762 mmHg 53%
    09:00 +22°C° 0 mm 1 mps 762 mmHg 47%
    10:00 +24°C° 0 mm 1 mps 762 mmHg 41%
    11:00 +26°C° 0 mm 1 mps 763 mmHg 34%
    12:00 +27°C° 0 mm 1 mps 762 mmHg 32%
    13:00 +28°C° 0 mm 1 mps 762 mmHg 30%
    14:00 +28°C° 0 mm 1 mps 762 mmHg 28%
    15:00 +27°C° 0 mm 2 mps 762 mmHg 31%
    16:00 +25°C° 0 mm 2 mps 762 mmHg 35%
    17:00 +24°C° 0 mm 2 mps 762 mmHg 38%
    18:00 +23°C° 0 mm 2 mps 762 mmHg 40%
    19:00 +21°C° 0 mm 2 mps 762 mmHg 43%
    20:00 +20°C° 0 mm 2 mps 762 mmHg 45%
    21:00 +19°C° 0 mm 2 mps 762 mmHg 46%
    22:00 +19°C° 0 mm 2 mps 762 mmHg 47%
    23:00 +19°C° 0 mm 1 mps 762 mmHg 47%

    Tomorrow, 21 October, Saturday

    Time Temperature Precipitation Wind Pressure Humidity
    00:00 +19°C° 0 mm 1 mps 762 mmHg 48%
    01:00 +18°C° 0 mm 2 mps 762 mmHg 49%
    02:00 +17°C° 0 mm 2 mps 762 mmHg 50%
    03:00 +17°C° 0 mm 2 mps 762 mmHg 51%
    04:00 +17°C° 0 mm 2 mps 762 mmHg 51%
    05:00 +17°C° 0 mm 2 mps 762 mmHg 52%
    06:00 +17°C° 0 mm 2 mps 762 mmHg 51%
    07:00 +18°C° 0 mm 2 mps 762 mmHg 50%
    08:00 +19°C° 0 mm 2 mps 762 mmHg 49%
    09:00 +22°C° 0 mm 1 mps 762 mmHg 43%
    10:00 +24°C° 0 mm 1 mps 762 mmHg 37%
    11:00 +26°C° 0 mm 1 mps 762 mmHg 31%
    12:00 +27°C° 0 mm 1 mps 762 mmHg 29%
    13:00 +28°C° 0 mm 1 mps 762 mmHg 27%
    14:00 +28°C° 0 mm 1 mps 761 mmHg 25%
    15:00 +27°C° 0 mm 1 mps 761 mmHg 29%
    16:00 +25°C° 0 mm 2 mps 761 mmHg 33%
    17:00 +24°C° 0 mm 2 mps 761 mmHg 37%
    18:00 +23°C° 0 mm 2 mps 761 mmHg 39%
    19:00 +21°C° 0 mm 2 mps 761 mmHg 41%
    20:00 +20°C° 0 mm 2 mps 761 mmHg 43%
    21:00 +19°C° 0 mm 2 mps 761 mmHg 44%
    22:00 +19°C° 0 mm 2 mps 761 mmHg 44%
    23:00 +18°C° 0 mm 2 mps 761 mmHg 45%

    Day after tomorrow, 22 October, Sunday

    Time Temperature Precipitation Wind Pressure Humidity
    00:00 +18°C° 0 mm 2 mps 760 mmHg 46%
    01:00 +18°C° 0 mm 2 mps 760 mmHg 46%
    02:00 +17°C° 0 mm 2 mps 760 mmHg 46%
    03:00 +17°C° 0 mm 2 mps 760 mmHg 47%
    04:00 +17°C° 0 mm 2 mps 760 mmHg 48%
    05:00 +17°C° 0 mm 2 mps 759 mmHg 49%
    06:00 +17°C° 0 mm 2 mps 760 mmHg 49%
    07:00 +18°C° 0 mm 2 mps 760 mmHg 49%
    08:00 +18°C° 0 mm 2 mps 760 mmHg 50%
    09:00 +20°C° 0 mm 3 mps 760 mmHg 46%
    10:00 +22°C° 0 mm 3 mps 760 mmHg 42%
    11:00 +24°C° 0 mm 3 mps 761 mmHg 38%
    12:00 +25°C° 0 mm 3 mps 760 mmHg 37%
    13:00 +25°C° 0 mm 3 mps 760 mmHg 37%
    14:00 +25°C° 0 mm 3 mps 760 mmHg 36%
    15:00 +24°C° 0 mm 3 mps 760 mmHg 42%
    16:00 +22°C° 0 mm 3 mps 760 mmHg 48%
    17:00 +20°C° 0 mm 4 mps 760 mmHg 53%
    18:00 +19°C° 0 mm 3 mps 760 mmHg 61%
    19:00 +18°C° 0 mm 3 mps 760 mmHg 69%
    20:00 +16°C° 0 mm 3 mps 761 mmHg 76%
    21:00 +16°C° 0 mm 3 mps 760 mmHg 79%
    22:00 +16°C° 0 mm 3 mps 760 mmHg 82%
    23:00 +15°C° 0 mm 2 mps 760 mmHg 85%

    23 October, Monday

    Time Temperature Precipitation Wind Pressure Humidity
    00:00 +15°C° 0 mm 2 mps 760 mmHg 87%
    01:00 +15°C° 0 mm 2 mps 760 mmHg 88%
    02:00 +15°C° 0 mm 2 mps 759 mmHg 89%
    03:00 +15°C° 0 mm 2 mps 759 mmHg 89%
    04:00 +14°C° 0 mm 2 mps 758 mmHg 90%
    05:00 +14°C° 0 mm 2 mps 758 mmHg 90%
    06:00 +15°C° 0 mm 2 mps 758 mmHg 88%
    07:00 +16°C° 0 mm 3 mps 757 mmHg 85%
    08:00 +16°C° 0 mm 3 mps 757 mmHg 82%
    09:00 +17°C° 0 mm 3 mps 757 mmHg 75%
    10:00 +19°C° 0 mm 3 mps 756 mmHg 67%
    11:00 +20°C° 0 mm 4 mps 756 mmHg 60%
    12:00 +21°C° 0 mm 4 mps 755 mmHg 57%
    13:00 +21°C° 0 mm 4 mps 755 mmHg 55%
    14:00 +22°C° 0 mm 4 mps 754 mmHg 53%
    15:00 +21°C° 0.1 mm 4 mps 754 mmHg 59%
    16:00 +20°C° 0.1 mm 4 mps 754 mmHg 65%
    17:00 +19°C° 0.1 mm 3 mps 754 mmHg 71%
    18:00 +18°C° 0.4 mm 3 mps 754 mmHg 77%
    19:00 +18°C° 0.4 mm 3 mps 754 mmHg 82%
    20:00 +17°C° 0.4 mm 3 mps 753 mmHg 87%
    21:00 +17°C° 0.2 mm 3 mps 753 mmHg 89%
    22:00 +16°C° 0.2 mm 3 mps 753 mmHg 90%
    23:00 +15°C° 0.2 mm 4 mps 753 mmHg 92%

    24 October, Tuesday

    Time Temperature Precipitation Wind Pressure Humidity
    00:00 +16°C° 0 mm 3 mps 753 mmHg 91%
    01:00 +16°C° 0 mm 3 mps 752 mmHg 90%
    02:00 +16°C° 0 mm 3 mps 752 mmHg 89%
    03:00 +16°C° 0 mm 3 mps 752 mmHg 88%
    04:00 +16°C° 0 mm 3 mps 752 mmHg 87%
    05:00 +16°C° 0 mm 3 mps 752 mmHg 85%
    06:00 +16°C° 0.1 mm 3 mps 752 mmHg 85%
    07:00 +16°C° 0.1 mm 3 mps 752 mmHg 84%
    08:00 +17°C° 0.1 mm 3 mps 752 mmHg 84%
    09:00 +18°C° 0.4 mm 3 mps 753 mmHg 79%
    10:00 +18°C° 0.4 mm 3 mps 753 mmHg 75%
    11:00 +19°C° 0.4 mm 3 mps 753 mmHg 70%
    12:00 +20°C° 0.1 mm 3 mps 753 mmHg 64%
    13:00 +21°C° 0.1 mm 4 mps 753 mmHg 58%
    14:00 +22°C° 0.1 mm 4 mps 753 mmHg 52%
    15:00 +21°C° 0 mm 5 mps 753 mmHg 58%
    16:00 +20°C° 0 mm 5 mps 753 mmHg 63%
    17:00 +19°C° 0 mm 6 mps 754 mmHg 69%
    18:00 +17°C° 0.2 mm 6 mps 754 mmHg 74%
    19:00 +17°C° 0.2 mm 6 mps 754 mmHg 80%
    20:00 +17°C° 0.2 mm 5 mps 755 mmHg 85%
    21:00 +17°C° 0.1 mm 6 mps 755 mmHg 87%
    22:00 +17°C° 0.1 mm 7 mps 755 mmHg 88%
    23:00 +17°C° 0.1 mm 8 mps 756 mmHg 90%

    25 October, Wednesday

    Time Temperature Precipitation Wind Pressure Humidity
    00:00 +17°C° 0 mm 9 mps 756 mmHg 88%
    01:00 +16°C° 0 mm 9 mps 756 mmHg 87%
    02:00 +16°C° 0 mm 10 mps 756 mmHg 86%
    03:00 +16°C° 0.1 mm 10 mps 756 mmHg 85%
    04:00 +16°C° 0.1 mm 10 mps 757 mmHg 85%
    05:00 +16°C° 0.1 mm 10 mps 757 mmHg 85%
    06:00 +14°C° 0.1 mm 11 mps 758 mmHg 84%
    07:00 +14°C° 0.1 mm 11 mps 758 mmHg 84%
    08:00 +14°C° 0.1 mm 11 mps 759 mmHg 84%
    09:00 +14°C° 0.2 mm 11 mps 759 mmHg 83%
    10:00 +14°C° 0.2 mm 11 mps 760 mmHg 83%
    11:00 +14°C° 0.2 mm 11 mps 760 mmHg 82%
    12:00 +14°C° 0.2 mm 11 mps 760 mmHg 82%
    13:00 +13°C° 0.2 mm 11 mps 760 mmHg 81%
    14:00 +13°C° 0.2 mm 11 mps 761 mmHg 81%
    15:00 +13°C° 0.2 mm 11 mps 761 mmHg 80%
    16:00 +13°C° 0.2 mm 11 mps 761 mmHg 79%
    17:00 +12°C° 0.2 mm 11 mps 762 mmHg 79%
    18:00 +12°C° 0.7 mm 11 mps 763 mmHg 78%
    19:00 +11°C° 0.7 mm 11 mps 763 mmHg 78%
    20:00 +11°C° 0.7 mm 11 mps 764 mmHg 77%
    21:00 +11°C° 0.8 mm 11 mps 764 mmHg 76%
    22:00 +9°C° 0.8 mm 11 mps 765 mmHg 75%
    23:00 +9°C° 0.8 mm 11 mps 765 mmHg 75%
    Show more